Location: Jaite
(41.2884°N, 81.5737°W)
Time: 09:16:40
(UTC+00:00)

BlueWalker 3 - Pass Details

Date: 15 October 2024
Orbit: 470 x 482 km, 53.2° (Epoch: 03 November)

Event Time Altitude Azimuth Distance (km) Brightness Sun altitude
Exits shadow 09:55:04 12° 347° (NNW) 1,514 4.3 -20.2°
Maximum altitude 09:55:59 13° 3° (N) 1,465 4.4 -20.0°
Drops below altitude 10° 09:57:44 10° 31° (NNE) 1,635 5.0 -19.7°
Sets 10:00:55 0° 61° (ENE) 2,514 6.7 -19.1°
